Location: La Oliva
(42.2466°N, 2.9955°E)
Time: 11:13:40
(UTC+00:00)

Cosmos 2263 Rocket - Pass Details

Date: 22 April 2021
Orbit: 824 x 848 km, 71.0° (Epoch: 11 May)

Event Time Altitude Azimuth Distance (km) Brightness Sun altitude
Exits shadow 22:16:20 55° 1° (N) 985 2.7 -31.5°
Drops below altitude 10° 22:20:44 10° 21° (NNE) 2,435 5.1 -31.8°
Sets 22:23:12 0° 23° (NNE) 3,374 5.9 -32.0°
